Regional Weather Roundup
Issued by NWS

Home | Current Version | Previous Version | Graphics & Text | Print | Product List | Glossary On
Versions: 1 2 3 4 5 6 7 8 9 10 11 12 13 14 15 16 17 18 19 20 21 22 23 24 25 26 27 28 29 30 31 32 33 34 35 36 37 38 39 40 41 42 43 44 45 46 47 48 49 50
299
ASUS44 KLIX 020610
RWRLA
LOUISIANA WEATHER ROUNDUP
NATIONAL WEATHER SERVICE NEW ORLEANS LA
100 AM CDT TUE SEP 02 2014

NOTE: "FAIR" INDICATES FEW OR NO CLOUDS BELOW 12,000 FEET WITH NO
      SIGNIFICANT WEATHER AND/OR OBSTRUCTIONS TO VISIBILITY.
      SKY/WX - SKY CONDITION AND SIGNIFICANT WEATHER.
      TMP - AIR TEMPERATURE.    DP   - DEWPOINT TEMPERATURE.
      RH  - RELATIVE HUMIDITY.  PRES - PRESSURE.
      HX  - HEAT INDEX.         WCI  - WIND CHILL INDEX.

*  THESE STATIONS ARE NOT NWS OR FAA STATIONS AND ARE NOT UNDER
   NWS QUALITY CONTROL.

LAZ040-048-061>063-065-066-069-020700-
SOUTHEAST LOUISIANA

CITY           SKY/WX    TMP DP  RH WIND       PRES   REMARKS
N.O. AUDUBON     N/A     82  76  83 MISG        N/A
6HR MIN TEMP:  81; 6HR MAX TEMP:  84;

N.O. INTL ARPT MOCLDY    79  74  84 S6        30.01F
6HR MIN TEMP:  79; 6HR MAX TEMP:  83; 6HR PCP: TRACE;

N.O. LAKEFRONT FAIR      79  76  90 S7        30.02F
6HR MIN TEMP:  78; 6HR MAX TEMP:  81; 6HR PCP: TRACE;

N.O. DOWNTOWN* FAIR      81  73  78 S5        30.02F
6HR MIN TEMP:  81; 6HR MAX TEMP:  82;

SLIDELL        FAIR      78  75  90 SE3       30.01S
6HR MIN TEMP:  77; 6HR MAX TEMP:  80;

BATON ROUGE    FAIR      77  74  90 NE3       30.00S
6HR MIN TEMP:  77; 6HR MAX TEMP:  82;

BOOTHVILLE     FAIR      82  78  88 SE7       30.03F
6HR MIN TEMP:  81; 6HR MAX TEMP:  84;

BELLE CHASSE   FAIR      80  74  81 CALM      30.01F
6HR MIN TEMP:  79; 6HR MAX TEMP:  83;

BOGALUSA*        N/A     78  74  86 CALM      30.03S
6HR MIN TEMP:  78; 6HR MAX TEMP:  80;

GALLIANO*      NOT AVBL
NEW ROADS*     FAIR      76  76  98 CALM      30.00F
6HR MIN TEMP:  76; 6HR MAX TEMP:  81;

GONZALES*        N/A     79  79 100 CALM      30.00S
6HR MIN TEMP:  79; 6HR MAX TEMP:  84;

HAMMOND*       FAIR      79  75  89 CALM      30.02S
HOUMA*         FAIR      77  74  88 CALM      30.01F
6HR MIN TEMP:  77; 6HR MAX TEMP:  84;

PORT FOURCHON* PTCLDY    84  77  79 S10       30.03F

$$

LAZ041-044-053-054-020700-
SOUTHWEST LOUISIANA

CITY           SKY/WX    TMP DP  RH WIND       PRES   REMARKS
LAKE CHARLES   FAIR      79  77  94 S6        29.96S
6HR MIN TEMP:  79; 6HR MAX TEMP:  83; 6HR PCP:  0.15;

LAFAYETTE      FAIR      79  77  94 CALM      29.99S
6HR MIN TEMP:  78; 6HR MAX TEMP:  84; 6HR PCP: TRACE;

PATTERSON        N/A     79  75  89 S6        30.02F
6HR MIN TEMP:  77; 6HR MAX TEMP:  84;

SALT POINT       N/A     86  77  74 VRB5      29.99F HX  97
6HR MIN TEMP:  83; 6HR MAX TEMP:  86; 6HR PCP:  0.07;

NEW IBERIA     FAIR      79  76  90 CALM      29.99F
6HR MIN TEMP:  78; 6HR MAX TEMP:  85; 6HR PCP:  0.03;

CHENAULT AIRPK FAIR      79  76  91 SE5       29.97F
6HR MIN TEMP:  78; 6HR MAX TEMP:  84;


$$

LAZ027-028-020700-
CENTRAL LOUISIANA

CITY           SKY/WX    TMP DP  RH WIND       PRES   REMARKS
FORT POLK      FAIR      75  75 100 SE5       29.98S
6HR MIN TEMP:  76; 6HR MAX TEMP:  80;

ALEXANDRIA INT FAIR      76  75  97 SE5       29.97S
6HR MIN TEMP:  76; 6HR MAX TEMP:  82;

ALEXANDRIA     FAIR      78  74  87 CALM      29.99R
6HR MIN TEMP:  77; 6HR MAX TEMP:  81;


$$

LAZ001-002-020700-
NORTHWEST LOUISIANA

CITY           SKY/WX    TMP DP  RH WIND       PRES   REMARKS
SHREVEPORT     FAIR      79  75  87 S7        29.96R
6HR MIN TEMP:  79; 6HR MAX TEMP:  89;

BARKSDALE AFB  FAIR      79  75  89 S9        29.97R
6HR MIN TEMP:  78; 6HR MAX TEMP:  84;

DTN SHREVEPORT FAIR      80  75  84 S10       29.96R
6HR MIN TEMP:  80; 6HR MAX TEMP:  87;


$$

LAZ014-016-020700-
NORTHEAST LOUISIANA

CITY           SKY/WX    TMP DP  RH WIND       PRES   REMARKS
MONROE         FAIR      77  74  90 S3        29.99R
6HR MIN TEMP:  77; 6HR MAX TEMP:  85;

TALLULAH       FAIR      77  73  87 S8        30.00R
6HR MIN TEMP:  77; 6HR MAX TEMP:  82;


$$




USA.gov is the U.S. government's official web portal to all federal, state and local government web resources and services.